Location: Butler
(32.5575°N, 84.2380°W)
Time: 05:52:56
(UTC+00:00)

N. Korean satellite - Pass Details

Date: 10 December 2021
Orbit: 447 x 491 km, 97.3° (Epoch: 22 January)

Event Time Altitude Azimuth Distance (km) Brightness Sun altitude
Exits shadow 09:51:50 - 43° (NE) 2,149 10.2 -32.1°
Reaches altitude 10° 09:53:57 10° 67° (ENE) 1,577 9.8 -31.7°
Maximum altitude 09:55:30 13° 94° (E) 1,420 9.7 -31.3°
Drops below altitude 10° 09:57:04 10° 122° (ESE) 1,578 9.9 -31.0°
Sets 10:00:04 0° 152° (SSE) 2,452 10.6 -30.4°
